Weather History for Latrobe, PA

Change the Weather History Date:

Tuesday, August 12, 2014

  Actual Average Record
Temperature  
Mean Temperature 74 °F -  
Max Temperature 82 °F 80 °F 89 °F (1997)
Min Temperature 66 °F 60 °F 48 °F (2011)
Cooling Degree Days 9    
Growing Degree Days 24 (Base 50)    
Moisture  
Dew Point 67 °F    
Average Humidity 92    
Maximum Humidity 100    
Minimum Humidity 62    
Precipitation  
Precipitation 0.57 in - - ()
Sea Level Pressure  
Sea Level Pressure 29.84 in    
Wind  
Wind Speed 6 mph (SSW)    
Max Wind Speed 15 mph    
Max Gust Speed 25 mph    
Visibility 9 miles    
Events Rain , Thunderstorm    
Averages and records for this station are not official NWS values.
T = Trace of Precipitation, MM = Missing Value Source: NWS Daily Summary

Daily Weather History Graph

Daily Weather History Graph

Search for Another Location

Airport:

Trip Planner

Search our weather history database for the weather conditions in past years. The results will help you decide how hot, cold, wet, or windy it might be!

Date:

Astronomy

Aug. 12, 2014 Rise Set
Actual Time 6:25 AM EDT 8:18 PM EDT
Civil Twilight 5:56 AM EDT 8:48 PM EDT
Nautical Twilight 5:20 AM EDT 9:23 PM EDT
Astronomical Twilight 4:41 AM EDT 10:02 PM EDT
Moon 9:24 PM EDT (8/12) 8:41 AM EDT (8/12)
Length of Visible Light 14h 51m
Length of Day
13h 52m
Waning Gibbous, 95% of the Moon is Illuminated
Aug 12
Waning Gibbous
Aug 17
Last Quarter
Aug 25
New
Sep 2
First Quarter
Sep 8
Full

Hourly Weather History & Observations

Time (EDT) Temp. Heat Index Dew Point Humidity Pressure Visibility Wind Dir Wind Speed Gust Speed Precip Events Conditions
12:15 AM 66.2 °F - 64.4 °F 94% 29.92 in 3.0 mi SSE 5.8 mph - 0.05 in Rain Rain
12:35 AM 66.2 °F - 64.4 °F 94% 29.91 in 8.0 mi Calm Calm - 0.07 in Rain Light Rain
12:55 AM 66.2 °F - 64.4 °F 94% 29.90 in 8.0 mi Calm Calm - 0.08 in Rain Light Rain
1:35 AM 66.2 °F - 64.4 °F 94% 29.87 in 10.0 mi ESE 15.0 mph 20.7 mph 0.03 in   Mostly Cloudy
1:55 AM 68.0 °F - 64.4 °F 88% 29.86 in 10.0 mi SE 15.0 mph 25.3 mph 0.03 in   Overcast
2:15 AM 68.0 °F - 64.4 °F 88% 29.86 in 10.0 mi SSE 10.4 mph 17.3 mph 0.00 in Thunderstorm Thunderstorm
2:35 AM 69.8 °F - 64.4 °F 83% 29.86 in 10.0 mi South 6.9 mph - 0.00 in   Mostly Cloudy
2:55 AM 68.0 °F - 66.2 °F 94% 29.85 in 10.0 mi SW 9.2 mph - 0.00 in Thunderstorm Mostly Cloudy
3:15 AM 68.0 °F - 66.2 °F 94% 29.86 in 10.0 mi SW 4.6 mph - 0.00 in Rain Light Rain
3:35 AM 69.8 °F - 64.4 °F 83% 29.84 in 10.0 mi ESE 6.9 mph - 0.00 in Thunderstorm Mostly Cloudy
3:55 AM 69.8 °F - 66.2 °F 88% 29.86 in 7.0 mi SW 6.9 mph - 0.01 in Rain , Thunderstorm Heavy Rain
4:15 AM 66.2 °F - 66.2 °F 100% 29.86 in 3.0 mi SW 3.5 mph - 0.26 in Rain Heavy Rain
4:35 AM 66.2 °F - 66.2 °F 100% 29.85 in 5.0 mi South 4.6 mph - 0.41 in Rain Rain
4:55 AM 66.2 °F - 66.2 °F 100% 29.84 in 6.0 mi Calm Calm - 0.45 in   Light Drizzle
5:35 AM 66.2 °F - 66.2 °F 100% 29.85 in 10.0 mi Calm Calm - 0.00 in   Overcast
5:55 AM 66.2 °F - 66.2 °F 100% 29.85 in 10.0 mi Calm Calm - 0.00 in   Overcast
6:15 AM 66.2 °F - 66.2 °F 100% 29.84 in 15.0 mi South 6.9 mph - N/A   Mostly Cloudy
6:50 AM 68.0 °F - 66.2 °F 94% 29.84 in 2.5 mi SW 6.9 mph - N/A Rain Light Rain
7:50 AM 69.8 °F - 68.0 °F 94% 29.84 in 2.0 mi South 6.9 mph - N/A Rain Rain
8:24 AM 69.8 °F - 68.0 °F 94% 29.84 in 10.0 mi SSW 6.9 mph - N/A   Overcast
8:50 AM 69.8 °F - 68.0 °F 94% 29.84 in 15.0 mi SSW 9.2 mph - N/A   Overcast
9:50 AM 71.6 °F - 69.8 °F 94% 29.84 in 15.0 mi WSW 6.9 mph - N/A   Overcast
11:50 AM 71.6 °F - 71.6 °F 100% 29.85 in 10.0 mi SSW 9.2 mph - N/A   Overcast
1:47 PM 78.8 °F - 71.6 °F 78% 29.81 in 15.0 mi SW 11.5 mph - N/A   Mostly Cloudy
2:45 PM 80.6 °F 83.9 °F 69.8 °F 70% 29.80 in 15.0 mi WNW 11.5 mph - N/A   Scattered Clouds
4:45 PM 82.4 °F 85.4 °F 68.0 °F 62% 29.77 in 10.0 mi WSW 6.9 mph - N/A   Mostly Cloudy
5:45 PM 71.6 °F - 64.4 °F 78% 29.78 in 10.0 mi WNW 9.2 mph - N/A   Overcast
6:45 PM 69.8 °F - 66.2 °F 88% 29.81 in 3.0 mi WSW 11.5 mph - N/A Rain Light Rain
8:45 PM 66.2 °F - 66.2 °F 100% 29.80 in 6.0 mi Calm Calm - N/A   Mostly Cloudy
10:15 PM 66.2 °F - 66.2 °F 100% 29.83 in 5.0 mi Calm Calm - 0.00 in   Partly Cloudy
10:55 PM 68.0 °F - 68.0 °F 100% 29.83 in 10.0 mi SSW 6.9 mph - 0.00 in   Partly Cloudy
11:15 PM 68.0 °F - 68.0 °F 100% 29.83 in 10.0 mi South 5.8 mph - 0.00 in   Clear
11:35 PM 68.0 °F - 68.0 °F 100% 29.84 in 10.0 mi SSW 6.9 mph - 0.00 in   Scattered Clouds
11:55 PM 68.0 °F - 68.0 °F 100% 29.84 in 10.0 mi SSW 9.2 mph - 0.00 in   Mostly Cloudy